Sacramento, CA

12:11 AM PST on February 10, 2016 (GMT -0800)
Sacramento Executive

Weather History for KSAC - November, 2011

Change the Weather History Date:

Tuesday, November 1, 2011

  Actual Average Record
Temperature  
Mean Temperature 65 °F -  
Max Temperature 74 °F 70 °F 87 °F (1960)
Min Temperature 56 °F 46 °F 34 °F (1971)
Degree Days  
Heating Degree Days 0    
Month to date heating degree days 0  
Cooling Degree Days 0    
Month to date cooling degree days 0  
Year to date cooling degree days 1153  
Growing Degree Days 14 (Base 50)    
Moisture  
Dew Point 25 °F    
Average Humidity 32    
Maximum Humidity 51    
Minimum Humidity 12    
Precipitation  
Precipitation 0.00 in 0.05 in 1.99 in (2008)
Month to date precipitation 0.00 0.05  
Year to date precipitation 15.94 13.24  
Since 1 July precipitation 1.34  
Sea Level Pressure  
Sea Level Pressure 30.05 in    
Wind  
Wind Speed 16 mph (NNW)    
Max Wind Speed 30 mph    
Max Gust Speed 39 mph    
Visibility 10 miles    
Events      
T = Trace of Precipitation, MM = Missing Value Source: NWS Daily Summary

Daily Weather History Graph

Daily Weather History Graph

Search for Another Location

Airport or City:

Trip Planner

Search our weather history database for the weather conditions in past years. The results will help you decide how hot, cold, wet, or windy it might be!

Date:

Astronomy

Nov. 01, 2011 Rise Set
Actual Time 7:32 AM PDT 6:06 PM PDT
Civil Twilight 7:04 AM PDT 6:33 PM PDT
Nautical Twilight 6:33 AM PDT 7:04 PM PDT
Astronomical Twilight 6:02 AM PDT 7:35 PM PDT
Moon 1:21 PM PDT (11/1) 11:54 PM PDT (11/1)
Length of Visible Light 11h 28m
Length of Day
10h 33m
Waxing Crescent, 41% of the Moon is Illuminated
Nov 1
Waxing Crescent
Nov 2
First Quarter
Nov 10
Full
Nov 18
Last Quarter
Nov 24
New

Hourly Weather History & Observations

Time (PDT) Temp. Dew Point Humidity Pressure Visibility Wind Dir Wind Speed Gust Speed Precip Events Conditions
12:53 AM 61.0 °F 43.0 °F 52% 29.99 in 10.0 mi NW 9.2 mph - N/A   Clear
1:53 AM 60.1 °F 39.0 °F 46% 30.00 in 10.0 mi NNW 10.4 mph - N/A   Clear
2:53 AM 60.1 °F 35.1 °F 39% 30.01 in 10.0 mi NNW 11.5 mph - N/A   Clear
3:53 AM 60.1 °F 33.1 °F 36% 30.01 in 10.0 mi NNW 15.0 mph 21.9 mph N/A   Clear
4:53 AM 59.0 °F 33.1 °F 38% 30.02 in 10.0 mi NNW 15.0 mph 26.5 mph N/A   Clear
5:53 AM 57.2 °F 30.2 °F 36% 30.04 in 10.0 mi NNW 15.0 mph - N/A   Clear
6:53 AM 55.9 °F 30.0 °F 37% 30.05 in 10.0 mi NNW 15.0 mph - N/A   Clear
7:53 AM 55.9 °F 28.0 °F 34% 30.05 in 10.0 mi NNW 21.9 mph 32.2 mph N/A   Clear
8:53 AM 57.9 °F 28.0 °F 32% 30.08 in 10.0 mi NNW 19.6 mph 25.3 mph N/A   Clear
9:53 AM 61.0 °F 26.1 °F 26% 30.09 in 10.0 mi NNW 24.2 mph 31.1 mph N/A   Clear
10:53 AM 63.0 °F 25.0 °F 24% 30.09 in 10.0 mi NNW 24.2 mph 39.1 mph N/A   Clear
11:53 AM 66.9 °F 24.1 °F 20% 30.09 in 10.0 mi NNW 21.9 mph 31.1 mph N/A   Clear
12:53 PM 70.0 °F 21.9 °F 16% 30.06 in 10.0 mi NNW 25.3 mph 34.5 mph N/A   Clear
1:53 PM 71.6 °F 21.2 °F 15% 30.05 in 10.0 mi NNW 27.6 mph 38.0 mph N/A   Clear
2:53 PM 73.9 °F 19.0 °F 13% 30.04 in 10.0 mi North 25.3 mph 38.0 mph N/A   Clear
3:53 PM 73.0 °F 17.1 °F 12% 30.03 in 10.0 mi NNW 25.3 mph 33.4 mph N/A   Clear
4:53 PM 72.0 °F 17.1 °F 12% 30.03 in 10.0 mi NNW 21.9 mph 28.8 mph N/A   Clear
5:53 PM 68.0 °F 19.0 °F 15% 30.02 in 10.0 mi NNW 23.0 mph 29.9 mph N/A   Clear
6:53 PM 66.0 °F 19.9 °F 17% 30.03 in 10.0 mi NNW 23.0 mph 35.7 mph N/A   Clear
7:53 PM 64.0 °F 19.0 °F 18% 30.05 in 10.0 mi NNW 18.4 mph 27.6 mph N/A   Clear
8:53 PM 62.1 °F 18.0 °F 18% 30.06 in 10.0 mi NNW 17.3 mph 23.0 mph N/A   Clear
9:53 PM 60.1 °F 16.0 °F 18% 30.06 in 10.0 mi NNW 16.1 mph - N/A   Clear
10:53 PM 60.1 °F 15.1 °F 17% 30.08 in 10.0 mi NNW 15.0 mph - N/A   Clear
11:53 PM 57.9 °F 15.1 °F 19% 30.08 in 10.0 mi NNW 11.5 mph - N/A   Clear